Time,TemperatureF,DewpointF,PressureIn,WindDirection,WindDirectionDegrees,WindSpeedMPH,WindSpeedGustMPH,Humidity,HourlyPrecipIn,Conditions,Clouds,dailyrainin,SoftwareType,DateUTC
2013-03-29 00:00:00,38.9,31.6,30.19,NW,323,4.0,4.0,75,0.00,,,0.00,Wunderground v.1.15,2013-03-29 04:00:00,
2013-03-29 00:02:00,38.9,31.6,30.19,NW,323,4.0,16.0,75,0.00,,,0.00,Wunderground v.1.15,2013-03-29 04:02:00,
2013-03-29 00:03:00,38.8,31.2,30.18,NNW,331,4.0,16.0,74,0.00,,,0.00,Wunderground v.1.15,2013-03-29 04:03:00,
2013-03-29 00:06:00,38.9,31.3,30.18,NNW,328,4.0,16.0,74,0.00,,,0.00,Wunderground v.1.15,2013-03-29 04:06:00,
2013-03-29 00:12:00,38.9,31.3,30.19,WNW,285,4.0,16.0,74,0.00,,,0.00,Wunderground v.1.15,2013-03-29 04:12:00,
2013-03-29 00:18:00,38.8,31.2,30.18,NNW,334,4.0,16.0,74,0.00,,,0.00,Wunderground v.1.15,2013-03-29 04:18:00,
2013-03-29 00:23:00,38.8,31.2,30.18,NW,323,3.0,16.0,74,0.00,,,0.00,Wunderground v.1.15,2013-03-29 04:23:00,
2013-03-29 00:28:00,38.7,31.1,30.19,WNW,289,3.0,16.0,74,0.00,,,0.00,Wunderground v.1.15,2013-03-29 04:28:00,
2013-03-29 00:34:00,38.7,31.1,30.19,WNW,299,3.0,16.0,74,0.00,,,0.00,Wunderground v.1.15,2013-03-29 04:34:00,
2013-03-29 00:40:00,38.6,31.0,30.19,NW,304,2.0,2.0,74,0.00,,,0.00,Wunderground v.1.15,2013-03-29 04:40:00,
2013-03-29 00:45:00,38.6,31.0,30.19,NW,310,2.0,16.0,74,0.00,,,0.00,Wunderground v.1.15,2013-03-29 04:45:00,
2013-03-29 00:51:00,38.5,30.9,30.19,NW,309,2.0,2.0,74,0.00,,,0.00,Wunderground v.1.15,2013-03-29 04:51:00,
2013-03-29 00:57:00,38.5,30.9,30.19,NW,313,2.0,16.0,74,0.00,,,0.00,Wunderground v.1.15,2013-03-29 04:57:00,
2013-03-29 01:03:00,38.4,30.8,30.19,NW,318,2.0,21.0,74,0.00,,,0.00,Wunderground v.1.15,2013-03-29 05:03:00,
2013-03-29 01:08:00,38.3,30.7,30.19,NW,323,3.0,21.0,74,0.00,,,0.00,Wunderground v.1.15,2013-03-29 05:08:00,
2013-03-29 01:13:00,38.2,30.6,30.19,NNW,327,3.0,21.0,74,0.00,,,0.00,Wunderground v.1.15,2013-03-29 05:13:00,
2013-03-29 01:18:00,38.1,30.5,30.19,NW,326,3.0,21.0,74,0.00,,,0.00,Wunderground v.1.15,2013-03-29 05:18:00,
2013-03-29 01:23:00,38.0,30.4,30.19,North,350,4.0,21.0,74,0.00,,,0.00,Wunderground v.1.15,2013-03-29 05:23:00,
2013-03-29 01:28:00,37.9,30.4,30.19,NNW,328,4.0,21.0,74,0.00,,,0.00,Wunderground v.1.15,2013-03-29 05:28:00,
2013-03-29 01:34:00,37.8,30.3,30.18,WNW,286,4.0,21.0,74,0.00,,,0.00,Wunderground v.1.15,2013-03-29 05:34:00,
2013-03-29 01:40:00,37.7,30.2,30.18,NNW,328,4.0,21.0,74,0.00,,,0.00,Wunderground v.1.15,2013-03-29 05:40:00,
2013-03-29 01:46:00,37.5,30.0,30.19,WNW,298,4.0,21.0,74,0.00,,,0.00,Wunderground v.1.15,2013-03-29 05:46:00,
2013-03-29 01:53:00,37.5,30.3,30.19,NW,308,3.0,21.0,75,0.00,,,0.00,Wunderground v.1.15,2013-03-29 05:53:00,
2013-03-29 01:59:00,37.4,29.9,30.19,NNW,339,4.0,21.0,74,0.00,,,0.00,Wunderground v.1.15,2013-03-29 05:59:00,
2013-03-29 02:04:00,37.4,29.9,30.19,NW,323,4.0,21.0,74,0.00,,,0.00,Wunderground v.1.15,2013-03-29 06:04:00,
2013-03-29 02:10:00,37.3,29.8,30.19,NW,317,4.0,4.0,74,0.00,,,0.00,Wunderground v.1.15,2013-03-29 06:10:00,
2013-03-29 02:16:00,37.2,30.0,30.19,WNW,292,2.0,21.0,75,0.00,,,0.00,Wunderground v.1.15,2013-03-29 06:16:00,
2013-03-29 02:22:00,37.1,29.6,30.19,NNW,336,3.0,21.0,74,0.00,,,0.00,Wunderground v.1.15,2013-03-29 06:22:00,
2013-03-29 02:28:00,37.1,29.6,30.19,NW,316,4.0,21.0,74,0.00,,,0.00,Wunderground v.1.15,2013-03-29 06:28:00,
2013-03-29 02:33:00,37.0,29.5,30.19,NW,310,4.0,21.0,74,0.00,,,0.00,Wunderground v.1.15,2013-03-29 06:33:00,
2013-03-29 02:38:00,37.0,29.5,30.19,NNW,344,3.0,21.0,74,0.00,,,0.00,Wunderground v.1.15,2013-03-29 06:38:00,
2013-03-29 02:44:00,37.0,29.5,30.19,NW,315,3.0,21.0,74,0.00,,,0.00,Wunderground v.1.15,2013-03-29 06:44:00,
2013-03-29 02:49:00,36.9,29.7,30.19,WNW,286,3.0,21.0,75,0.00,,,0.00,Wunderground v.1.15,2013-03-29 06:49:00,
2013-03-29 02:55:00,36.9,29.4,30.19,NW,311,4.0,21.0,74,0.00,,,0.00,Wunderground v.1.15,2013-03-29 06:55:00,
2013-03-29 03:01:00,36.9,29.4,30.19,WNW,298,4.0,21.0,74,0.00,,,0.00,Wunderground v.1.15,2013-03-29 07:01:00,
2013-03-29 03:07:00,36.8,29.3,30.18,NW,318,3.0,21.0,74,0.00,,,0.00,Wunderground v.1.15,2013-03-29 07:07:00,
2013-03-29 03:13:00,36.7,29.2,30.19,WNW,294,2.0,21.0,74,0.00,,,0.00,Wunderground v.1.15,2013-03-29 07:13:00,
2013-03-29 03:18:00,36.6,29.4,30.19,WNW,300,2.0,21.0,75,0.00,,,0.00,Wunderground v.1.15,2013-03-29 07:18:00,
2013-03-29 03:24:00,36.5,29.3,30.19,WNW,300,3.0,21.0,75,0.00,,,0.00,Wunderground v.1.15,2013-03-29 07:24:00,
2013-03-29 03:30:00,36.5,29.3,30.19,WNW,300,2.0,21.0,75,0.00,,,0.00,Wunderground v.1.15,2013-03-29 07:30:00,
2013-03-29 03:36:00,36.4,28.9,30.19,WNW,300,1.0,21.0,74,0.00,,,0.00,Wunderground v.1.15,2013-03-29 07:36:00,
2013-03-29 03:42:00,36.3,28.8,30.19,WNW,300,1.0,21.0,74,0.00,,,0.00,Wunderground v.1.15,2013-03-29 07:42:00,
2013-03-29 03:47:00,36.3,29.1,30.19,WNW,300,2.0,21.0,75,0.00,,,0.00,Wunderground v.1.15,2013-03-29 07:47:00,
2013-03-29 03:53:00,36.2,29.0,30.19,WNW,300,3.0,21.0,75,0.00,,,0.00,Wunderground v.1.15,2013-03-29 07:53:00,
2013-03-29 03:59:00,36.1,28.9,30.19,WNW,297,4.0,21.0,75,0.00,,,0.00,Wunderground v.1.15,2013-03-29 07:59:00,
2013-03-29 04:05:00,36.1,28.9,30.19,WNW,294,6.0,21.0,75,0.00,,,0.00,Wunderground v.1.15,2013-03-29 08:05:00,
2013-03-29 04:10:00,36.1,28.9,30.19,WNW,298,6.0,6.0,75,0.00,,,0.00,Wunderground v.1.15,2013-03-29 08:10:00,
2013-03-29 04:17:00,35.9,28.7,30.19,WNW,286,6.0,21.0,75,0.00,,,0.00,Wunderground v.1.15,2013-03-29 08:17:00,
2013-03-29 04:23:00,35.9,29.1,30.19,WNW,296,5.0,21.0,76,0.00,,,0.00,Wunderground v.1.15,2013-03-29 08:23:00,
2013-03-29 04:29:00,35.8,29.0,30.19,WNW,301,6.0,21.0,76,0.00,,,0.00,Wunderground v.1.15,2013-03-29 08:29:00,
2013-03-29 04:34:00,35.8,29.0,30.19,WNW,302,6.0,21.0,76,0.00,,,0.00,Wunderground v.1.15,2013-03-29 08:34:00,
2013-03-29 04:40:00,35.8,29.0,30.19,WNW,292,6.0,6.0,76,0.00,,,0.00,Wunderground v.1.15,2013-03-29 08:40:00,
2013-03-29 04:46:00,35.7,28.9,30.19,WNW,293,6.0,21.0,76,0.00,,,0.00,Wunderground v.1.15,2013-03-29 08:46:00,
2013-03-29 04:51:00,35.6,28.8,30.19,WNW,298,7.0,21.0,76,0.00,,,0.00,Wunderground v.1.15,2013-03-29 08:51:00,
2013-03-29 04:57:00,35.5,29.0,30.19,WNW,301,7.0,21.0,77,0.00,,,0.00,Wunderground v.1.15,2013-03-29 08:57:00,
2013-03-29 05:03:00,35.4,28.9,30.19,WNW,302,7.0,21.0,77,0.00,,,0.00,Wunderground v.1.15,2013-03-29 09:03:00,
2013-03-29 05:08:00,35.3,28.8,30.19,WNW,294,7.0,21.0,77,0.00,,,0.00,Wunderground v.1.15,2013-03-29 09:08:00,
2013-03-29 05:14:00,35.3,28.8,30.18,WNW,290,7.0,21.0,77,0.00,,,0.00,Wunderground v.1.15,2013-03-29 09:14:00,
2013-03-29 05:20:00,35.2,28.7,30.18,WNW,290,6.0,21.0,77,0.00,,,0.00,Wunderground v.1.15,2013-03-29 09:20:00,
2013-03-29 05:26:00,35.1,28.9,30.19,WNW,287,6.0,21.0,78,0.00,,,0.00,Wunderground v.1.15,2013-03-29 09:26:00,
2013-03-29 05:31:00,35.1,28.9,30.19,WNW,294,5.0,21.0,78,0.00,,,0.00,Wunderground v.1.15,2013-03-29 09:31:00,
2013-03-29 05:37:00,35.0,28.8,30.19,WNW,300,5.0,21.0,78,0.00,,,0.00,Wunderground v.1.15,2013-03-29 09:37:00,
2013-03-29 05:43:00,35.0,28.8,30.19,WNW,294,5.0,21.0,78,0.00,,,0.00,Wunderground v.1.15,2013-03-29 09:43:00,
2013-03-29 05:49:00,34.9,28.7,30.19,WNW,290,5.0,21.0,78,0.00,,,0.00,Wunderground v.1.15,2013-03-29 09:49:00,
2013-03-29 05:55:00,34.8,28.6,30.19,WNW,292,5.0,21.0,78,0.00,,,0.00,Wunderground v.1.15,2013-03-29 09:55:00,
2013-03-29 06:00:00,34.8,28.6,30.19,WNW,284,4.0,21.0,78,0.00,,,0.00,Wunderground v.1.15,2013-03-29 10:00:00,
2013-03-29 06:07:00,34.7,28.9,30.19,WNW,284,3.0,21.0,79,0.00,,,0.00,Wunderground v.1.15,2013-03-29 10:07:00,
2013-03-29 06:13:00,34.8,29.0,30.19,WNW,284,3.0,21.0,79,0.00,,,0.00,Wunderground v.1.15,2013-03-29 10:13:00,
2013-03-29 06:18:00,34.8,29.0,30.19,WNW,284,2.0,21.0,79,0.00,,,0.00,Wunderground v.1.15,2013-03-29 10:18:00,
2013-03-29 06:24:00,35.0,29.1,30.19,WNW,284,1.0,21.0,79,0.00,,,0.00,Wunderground v.1.15,2013-03-29 10:24:00,
2013-03-29 06:30:00,35.1,29.2,30.19,WNW,284,2.0,21.0,79,0.00,,,0.00,Wunderground v.1.15,2013-03-29 10:30:00,
2013-03-29 06:35:00,35.1,28.9,30.18,WNW,285,3.0,21.0,78,0.00,,,0.00,Wunderground v.1.15,2013-03-29 10:35:00,
2013-03-29 06:40:00,35.0,28.8,30.18,WNW,285,2.0,2.0,78,0.00,,,0.00,Wunderground v.1.15,2013-03-29 10:40:00,
2013-03-29 06:46:00,34.3,28.2,30.18,WNW,285,0.0,21.0,78,0.00,,,0.00,Wunderground v.1.15,2013-03-29 10:46:00,
2013-03-29 06:52:00,33.5,27.7,30.19,WNW,285,0.0,21.0,79,0.00,,,0.00,Wunderground v.1.15,2013-03-29 10:52:00,
2013-03-29 06:57:00,32.9,27.4,30.19,WNW,285,0.0,21.0,80,0.00,,,0.00,Wunderground v.1.15,2013-03-29 10:57:00,
2013-03-29 07:03:00,32.7,27.8,30.19,WNW,285,0.0,21.0,82,0.00,,,0.00,Wunderground v.1.15,2013-03-29 11:03:00,
2013-03-29 07:09:00,33.1,28.5,30.19,WNW,285,0.0,21.0,83,0.00,,,0.00,Wunderground v.1.15,2013-03-29 11:09:00,
2013-03-29 07:15:00,33.7,28.8,30.19,WNW,285,1.0,21.0,82,0.00,,,0.00,Wunderground v.1.15,2013-03-29 11:15:00,
2013-03-29 07:20:00,34.2,29.0,30.19,WNW,288,3.0,21.0,81,0.00,,,0.00,Wunderground v.1.15,2013-03-29 11:20:00,
2013-03-29 07:26:00,34.6,29.1,30.20,WNW,288,3.0,21.0,80,0.00,,,0.00,Wunderground v.1.15,2013-03-29 11:26:00,
2013-03-29 07:32:00,34.8,29.0,30.19,WNW,288,3.0,21.0,79,0.00,,,0.00,Wunderground v.1.15,2013-03-29 11:32:00,
2013-03-29 07:38:00,34.9,29.0,30.19,WNW,288,3.0,21.0,79,0.00,,,0.00,Wunderground v.1.15,2013-03-29 11:38:00,
2013-03-29 07:44:00,34.9,29.0,30.19,WNW,288,2.0,21.0,79,0.00,,,0.00,Wunderground v.1.15,2013-03-29 11:44:00,
2013-03-29 07:49:00,35.0,29.1,30.20,WNW,292,4.0,21.0,79,0.00,,,0.00,Wunderground v.1.15,2013-03-29 11:49:00,
2013-03-29 07:55:00,35.3,29.4,30.20,WNW,293,3.0,21.0,79,0.00,,,0.00,Wunderground v.1.15,2013-03-29 11:55:00,
2013-03-29 08:00:00,35.7,29.8,30.20,WNW,286,3.0,21.0,79,0.00,,,0.00,Wunderground v.1.15,2013-03-29 12:00:00,
2013-03-29 08:05:00,36.1,29.9,30.20,West,281,4.0,21.0,78,0.00,,,0.00,Wunderground v.1.15,2013-03-29 12:05:00,
2013-03-29 08:11:00,36.5,30.3,30.20,WNW,298,4.0,21.0,78,0.00,,,0.00,Wunderground v.1.15,2013-03-29 12:11:00,
2013-03-29 08:17:00,36.9,30.4,30.20,NW,306,3.0,21.0,77,0.00,,,0.00,Wunderground v.1.15,2013-03-29 12:17:00,
2013-03-29 08:22:00,37.1,30.6,30.20,NW,316,3.0,21.0,77,0.00,,,0.00,Wunderground v.1.15,2013-03-29 12:22:00,
2013-03-29 08:28:00,37.5,30.6,30.20,NW,316,3.0,21.0,76,0.00,,,0.00,Wunderground v.1.15,2013-03-29 12:28:00,
2013-03-29 08:33:00,37.8,30.9,30.20,WNW,286,4.0,21.0,76,0.00,,,0.00,Wunderground v.1.15,2013-03-29 12:33:00,
2013-03-29 08:38:00,38.2,31.0,30.20,WNW,290,4.0,21.0,75,0.00,,,0.00,Wunderground v.1.15,2013-03-29 12:38:00,
2013-03-29 08:43:00,38.5,30.9,30.20,NW,325,5.0,21.0,74,0.00,,,0.00,Wunderground v.1.15,2013-03-29 12:43:00,
2013-03-29 08:49:00,38.7,31.1,30.20,NNW,338,6.0,21.0,74,0.00,,,0.00,Wunderground v.1.15,2013-03-29 12:49:00,
2013-03-29 08:54:00,38.9,31.0,30.20,NNW,335,6.0,21.0,73,0.00,,,0.00,Wunderground v.1.15,2013-03-29 12:54:00,
2013-03-29 09:00:00,39.2,31.3,30.20,NW,324,6.0,6.0,73,0.00,,,0.00,Wunderground v.1.15,2013-03-29 13:00:00,
2013-03-29 09:06:00,39.3,31.0,30.20,NNW,346,7.0,21.0,72,0.00,,,0.00,Wunderground v.1.15,2013-03-29 13:06:00,
2013-03-29 09:11:00,39.4,31.1,30.20,NNW,346,7.0,21.0,72,0.00,,,0.00,Wunderground v.1.15,2013-03-29 13:11:00,
2013-03-29 09:17:00,39.9,31.3,30.20,NNW,344,5.0,21.0,71,0.00,,,0.00,Wunderground v.1.15,2013-03-29 13:17:00,
2013-03-29 09:22:00,40.3,31.6,30.20,NNW,341,5.0,21.0,71,0.00,,,0.00,Wunderground v.1.15,2013-03-29 13:22:00,
2013-03-29 09:28:00,40.5,31.5,30.20,NW,310,5.0,21.0,70,0.00,,,0.00,Wunderground v.1.15,2013-03-29 13:28:00,
2013-03-29 09:34:00,40.6,31.6,30.20,NNW,327,6.0,21.0,70,0.00,,,0.00,Wunderground v.1.15,2013-03-29 13:34:00,
2013-03-29 09:40:00,41.1,32.1,30.20,WNW,297,5.0,21.0,70,0.00,,,0.00,Wunderground v.1.15,2013-03-29 13:40:00,
2013-03-29 09:45:00,41.1,31.7,30.19,NW,309,6.0,21.0,69,0.00,,,0.00,Wunderground v.1.15,2013-03-29 13:45:00,
2013-03-29 09:50:00,40.9,31.9,30.19,North,355,7.0,7.0,70,0.00,,,0.00,Wunderground v.1.15,2013-03-29 13:50:00,
2013-03-29 09:56:00,41.2,31.8,30.19,North,355,6.0,21.0,69,0.00,,,0.00,Wunderground v.1.15,2013-03-29 13:56:00,
2013-03-29 10:02:00,41.2,31.8,30.19,NNW,345,7.0,21.0,69,0.00,,,0.00,Wunderground v.1.15,2013-03-29 14:02:00,
2013-03-29 10:07:00,41.1,31.7,30.19,NNW,328,8.0,21.0,69,0.00,,,0.00,Wunderground v.1.15,2013-03-29 14:07:00,
2013-03-29 10:13:00,41.5,32.1,30.19,North,355,7.0,21.0,69,0.00,,,0.00,Wunderground v.1.15,2013-03-29 14:13:00,
2013-03-29 10:18:00,41.6,32.2,30.19,NNW,331,8.0,21.0,69,0.00,,,0.00,Wunderground v.1.15,2013-03-29 14:18:00,
2013-03-29 10:23:00,42.2,32.8,30.19,North,350,8.0,21.0,69,0.00,,,0.00,Wunderground v.1.15,2013-03-29 14:23:00,
2013-03-29 10:29:00,42.4,32.2,30.19,NW,323,8.0,21.0,67,0.00,,,0.00,Wunderground v.1.15,2013-03-29 14:29:00,
2013-03-29 10:35:00,42.5,32.7,30.19,West,269,8.0,21.0,68,0.00,,,0.00,Wunderground v.1.15,2013-03-29 14:35:00,
2013-03-29 10:41:00,42.1,32.3,30.19,NNW,334,9.0,11.0,68,0.00,,,0.00,Wunderground v.1.15,2013-03-29 14:41:00,
2013-03-29 10:47:00,41.9,32.1,30.19,NNW,328,8.0,21.0,68,0.00,,,0.00,Wunderground v.1.15,2013-03-29 14:47:00,
2013-03-29 10:52:00,42.2,32.4,30.19,NW,311,7.0,21.0,68,0.00,,,0.00,Wunderground v.1.15,2013-03-29 14:52:00,
2013-03-29 10:58:00,42.6,32.4,30.19,NNW,327,8.0,21.0,67,0.00,,,0.00,Wunderground v.1.15,2013-03-29 14:58:00,
2013-03-29 11:03:00,43.1,32.5,30.19,NW,319,9.0,21.0,66,0.00,,,0.00,Wunderground v.1.15,2013-03-29 15:03:00,
2013-03-29 11:08:00,43.3,32.3,30.19,North,360,9.0,21.0,65,0.00,,,0.00,Wunderground v.1.15,2013-03-29 15:08:00,
2013-03-29 11:14:00,42.6,32.4,30.19,North,360,10.0,21.0,67,0.00,,,0.00,Wunderground v.1.15,2013-03-29 15:14:00,
2013-03-29 11:19:00,42.3,32.1,30.19,NW,315,8.0,21.0,67,0.00,,,0.00,Wunderground v.1.15,2013-03-29 15:19:00,
2013-03-29 11:24:00,42.5,32.3,30.18,North,360,7.0,21.0,67,0.00,,,0.00,Wunderground v.1.15,2013-03-29 15:24:00,
2013-03-29 11:30:00,42.6,32.8,30.19,NW,325,8.0,21.0,68,0.00,,,0.00,Wunderground v.1.15,2013-03-29 15:30:00,
2013-03-29 11:36:00,43.2,33.0,30.18,NNW,338,8.0,21.0,67,0.00,,,0.00,Wunderground v.1.15,2013-03-29 15:36:00,
2013-03-29 11:43:00,43.2,33.3,30.18,NNW,340,6.0,21.0,68,0.00,,,0.00,Wunderground v.1.15,2013-03-29 15:43:00,
2013-03-29 11:48:00,43.6,32.6,30.18,NNW,333,7.0,21.0,65,0.00,,,0.00,Wunderground v.1.15,2013-03-29 15:48:00,
2013-03-29 11:53:00,44.4,33.7,30.18,NNW,334,7.0,21.0,66,0.00,,,0.00,Wunderground v.1.15,2013-03-29 15:53:00,
2013-03-29 11:59:00,44.6,32.8,30.18,North,355,8.0,21.0,63,0.00,,,0.00,Wunderground v.1.15,2013-03-29 15:59:00,
2013-03-29 12:05:00,44.6,32.8,30.18,NNW,346,9.0,21.0,63,0.00,,,0.00,Wunderground v.1.15,2013-03-29 16:05:00,
2013-03-29 12:11:00,44.7,32.9,30.18,NNE,32,9.0,21.0,63,0.00,,,0.00,Wunderground v.1.15,2013-03-29 16:11:00,
2013-03-29 12:17:00,45.1,33.2,30.17,WNW,300,9.0,21.0,63,0.00,,,0.00,Wunderground v.1.15,2013-03-29 16:17:00,
2013-03-29 12:22:00,45.7,33.4,30.18,NW,311,8.0,21.0,62,0.00,,,0.00,Wunderground v.1.15,2013-03-29 16:22:00,
2013-03-29 12:27:00,45.8,33.1,30.17,NNW,334,8.0,21.0,61,0.00,,,0.00,Wunderground v.1.15,2013-03-29 16:27:00,
2013-03-29 12:33:00,45.4,32.3,30.17,North,360,9.0,21.0,60,0.00,,,0.00,Wunderground v.1.15,2013-03-29 16:33:00,
2013-03-29 12:38:00,44.6,32.4,30.17,NNW,331,10.0,21.0,62,0.00,,,0.00,Wunderground v.1.15,2013-03-29 16:38:00,
2013-03-29 12:44:00,45.0,32.8,30.17,NE,36,9.0,21.0,62,0.00,,,0.00,Wunderground v.1.15,2013-03-29 16:44:00,
2013-03-29 12:49:00,44.6,32.8,30.17,North,9,9.0,21.0,63,0.00,,,0.00,Wunderground v.1.15,2013-03-29 16:49:00,
2013-03-29 12:55:00,44.7,32.1,30.17,NNE,19,8.0,21.0,61,0.00,,,0.00,Wunderground v.1.15,2013-03-29 16:55:00,
2013-03-29 13:00:00,44.7,31.7,30.17,NW,319,8.0,21.0,60,0.00,,,0.00,Wunderground v.1.15,2013-03-29 17:00:00,
2013-03-29 13:06:00,44.9,31.8,30.16,WNW,302,8.0,21.0,60,0.00,,,0.00,Wunderground v.1.15,2013-03-29 17:06:00,
2013-03-29 13:12:00,45.1,31.6,30.16,North,5,8.0,21.0,59,0.00,,,0.00,Wunderground v.1.15,2013-03-29 17:12:00,
2013-03-29 13:18:00,45.1,32.0,30.15,WNW,288,8.0,21.0,60,0.00,,,0.00,Wunderground v.1.15,2013-03-29 17:18:00,
2013-03-29 13:23:00,45.7,32.6,30.16,North,9,7.0,21.0,60,0.00,,,0.00,Wunderground v.1.15,2013-03-29 17:23:00,
2013-03-29 13:29:00,45.5,32.0,30.15,NNW,342,8.0,21.0,59,0.00,,,0.00,Wunderground v.1.15,2013-03-29 17:29:00,
2013-03-29 13:34:00,45.2,31.7,30.15,WNW,298,9.0,21.0,59,0.00,,,0.00,Wunderground v.1.15,2013-03-29 17:34:00,
2013-03-29 13:40:00,45.0,31.9,30.15,NNW,327,8.0,8.0,60,0.00,,,0.00,Wunderground v.1.15,2013-03-29 17:40:00,
2013-03-29 13:45:00,44.6,32.0,30.15,North,355,9.0,21.0,61,0.00,,,0.00,Wunderground v.1.15,2013-03-29 17:45:00,
2013-03-29 13:51:00,43.9,32.1,30.15,North,5,10.0,21.0,63,0.00,,,0.00,Wunderground v.1.15,2013-03-29 17:51:00,
2013-03-29 13:57:00,43.9,31.7,30.15,NW,319,10.0,21.0,62,0.00,,,0.00,Wunderground v.1.15,2013-03-29 17:57:00,
2013-03-29 14:02:00,43.8,32.4,30.14,NNW,344,9.0,21.0,64,0.00,,,0.00,Wunderground v.1.15,2013-03-29 18:02:00,
2013-03-29 14:08:00,44.5,32.3,30.15,North,360,7.0,21.0,62,0.00,,,0.00,Wunderground v.1.15,2013-03-29 18:08:00,
2013-03-29 14:14:00,44.6,32.0,30.15,NNE,13,8.0,21.0,61,0.00,,,0.00,Wunderground v.1.15,2013-03-29 18:14:00,
2013-03-29 14:20:00,44.5,32.7,30.14,North,5,6.0,21.0,63,0.00,,,0.00,Wunderground v.1.15,2013-03-29 18:20:00,
2013-03-29 14:25:00,44.4,32.6,30.14,North,360,6.0,21.0,63,0.00,,,0.00,Wunderground v.1.15,2013-03-29 18:25:00,
2013-03-29 14:31:00,44.4,32.6,30.14,NW,325,7.0,21.0,63,0.00,,,0.00,Wunderground v.1.15,2013-03-29 18:31:00,
2013-03-29 14:36:00,44.4,33.4,30.14,NNW,330,7.0,21.0,65,0.00,,,0.00,Wunderground v.1.15,2013-03-29 18:36:00,
2013-03-29 14:41:00,44.6,33.2,30.14,NNW,338,6.0,21.0,64,0.00,,,0.00,Wunderground v.1.15,2013-03-29 18:41:00,
2013-03-29 14:47:00,44.1,32.7,30.14,NW,322,8.0,21.0,64,0.00,,,0.00,Wunderground v.1.15,2013-03-29 18:47:00,
2013-03-29 14:53:00,43.6,32.6,30.14,North,9,10.0,21.0,65,0.00,,,0.00,Wunderground v.1.15,2013-03-29 18:53:00,
2013-03-29 14:58:00,43.1,32.9,30.14,North,5,10.0,21.0,67,0.00,,,0.00,Wunderground v.1.15,2013-03-29 18:58:00,
2013-03-29 15:04:00,43.1,32.9,30.14,NNW,346,8.0,21.0,67,0.00,,,0.00,Wunderground v.1.15,2013-03-29 19:04:00,
2013-03-29 15:09:00,43.3,32.3,30.14,NNW,329,7.0,21.0,65,0.00,,,0.00,Wunderground v.1.15,2013-03-29 19:09:00,
2013-03-29 15:14:00,42.8,32.6,30.14,NW,319,7.0,21.0,67,0.00,,,0.00,Wunderground v.1.15,2013-03-29 19:14:00,
2013-03-29 15:20:00,42.6,32.4,30.13,NNW,332,7.0,7.0,67,0.00,,,0.00,Wunderground v.1.15,2013-03-29 19:20:00,
2013-03-29 15:26:00,42.4,32.2,30.13,NW,315,7.0,21.0,67,0.00,,,0.00,Wunderground v.1.15,2013-03-29 19:26:00,
2013-03-29 15:32:00,42.3,32.1,30.13,NNW,345,7.0,21.0,67,0.00,,,0.00,Wunderground v.1.15,2013-03-29 19:32:00,
2013-03-29 15:37:00,42.3,31.7,30.13,WNW,287,7.0,21.0,66,0.00,,,0.00,Wunderground v.1.15,2013-03-29 19:37:00,
2013-03-29 15:42:00,42.3,31.7,30.13,WNW,302,7.0,21.0,66,0.00,,,0.00,Wunderground v.1.15,2013-03-29 19:42:00,
2013-03-29 15:47:00,42.3,31.7,30.13,NNW,348,6.0,21.0,66,0.00,,,0.00,Wunderground v.1.15,2013-03-29 19:47:00,
2013-03-29 15:53:00,42.4,32.2,30.13,NNE,30,7.0,21.0,67,0.00,,,0.00,Wunderground v.1.15,2013-03-29 19:53:00,
2013-03-29 15:59:00,42.6,32.4,30.13,NNW,345,7.0,21.0,67,0.00,,,0.00,Wunderground v.1.15,2013-03-29 19:59:00,
2013-03-29 16:05:00,42.5,32.3,30.13,NNW,334,8.0,21.0,67,0.00,,,0.00,Wunderground v.1.15,2013-03-29 20:05:00,
2013-03-29 16:11:00,42.2,32.0,30.13,NNW,347,9.0,21.0,67,0.00,,,0.00,Wunderground v.1.15,2013-03-29 20:11:00,
2013-03-29 16:16:00,41.9,32.1,30.13,NNW,334,9.0,21.0,68,0.00,,,0.00,Wunderground v.1.15,2013-03-29 20:16:00,
2013-03-29 16:22:00,41.8,32.0,30.13,North,5,9.0,21.0,68,0.00,,,0.00,Wunderground v.1.15,2013-03-29 20:22:00,
2013-03-29 16:28:00,42.1,32.3,30.13,NW,305,9.0,21.0,68,0.00,,,0.00,Wunderground v.1.15,2013-03-29 20:28:00,
2013-03-29 16:33:00,42.0,31.8,30.13,North,355,8.0,21.0,67,0.00,,,0.00,Wunderground v.1.15,2013-03-29 20:33:00,
2013-03-29 16:39:00,42.0,31.8,30.14,NW,325,9.0,21.0,67,0.00,,,0.00,Wunderground v.1.15,2013-03-29 20:39:00,
2013-03-29 16:45:00,41.8,31.3,30.14,NNE,26,8.0,21.0,66,0.00,,,0.00,Wunderground v.1.15,2013-03-29 20:45:00,
2013-03-29 16:52:00,41.7,31.5,30.14,NNW,330,8.0,21.0,67,0.00,,,0.00,Wunderground v.1.15,2013-03-29 20:52:00,
2013-03-29 16:58:00,41.9,31.4,30.14,NNW,344,6.0,21.0,66,0.00,,,0.00,Wunderground v.1.15,2013-03-29 20:58:00,
2013-03-29 17:03:00,41.8,31.3,30.14,NNE,18,8.0,21.0,66,0.00,,,0.00,Wunderground v.1.15,2013-03-29 21:03:00,
2013-03-29 17:09:00,41.7,31.5,30.14,NNW,339,9.0,21.0,67,0.00,,,0.00,Wunderground v.1.15,2013-03-29 21:09:00,
2013-03-29 17:15:00,41.9,31.4,30.13,NNW,339,7.0,21.0,66,0.00,,,0.00,Wunderground v.1.15,2013-03-29 21:15:00,
2013-03-29 17:21:00,42.2,32.0,30.14,North,355,6.0,8.0,67,0.00,,,0.00,Wunderground v.1.15,2013-03-29 21:21:00,
2013-03-29 17:27:00,42.1,31.6,30.14,NW,304,7.0,21.0,66,0.00,,,0.00,Wunderground v.1.15,2013-03-29 21:27:00,
2013-03-29 17:32:00,42.0,31.5,30.14,North,350,8.0,21.0,66,0.00,,,0.00,Wunderground v.1.15,2013-03-29 21:32:00,
2013-03-29 17:38:00,42.0,31.5,30.14,NNW,341,8.0,21.0,66,0.00,,,0.00,Wunderground v.1.15,2013-03-29 21:38:00,
2013-03-29 17:43:00,41.9,31.7,30.14,North,11,8.0,21.0,67,0.00,,,0.00,Wunderground v.1.15,2013-03-29 21:43:00,
2013-03-29 17:48:00,42.0,31.5,30.14,NNW,344,7.0,21.0,66,0.00,,,0.00,Wunderground v.1.15,2013-03-29 21:48:00,
2013-03-29 17:54:00,42.1,31.9,30.14,NNE,24,6.0,21.0,67,0.00,,,0.00,Wunderground v.1.15,2013-03-29 21:54:00,
2013-03-29 18:00:00,41.9,31.4,30.14,NNW,328,7.0,7.0,66,0.00,,,0.00,Wunderground v.1.15,2013-03-29 22:00:00,
2013-03-29 18:05:00,41.9,31.4,30.14,North,360,8.0,21.0,66,0.00,,,0.00,Wunderground v.1.15,2013-03-29 22:05:00,
2013-03-29 18:11:00,41.9,31.4,30.14,North,360,7.0,21.0,66,0.00,,,0.00,Wunderground v.1.15,2013-03-29 22:11:00,
2013-03-29 18:17:00,41.9,31.4,30.14,NNW,333,6.0,21.0,66,0.00,,,0.00,Wunderground v.1.15,2013-03-29 22:17:00,
2013-03-29 18:23:00,41.9,31.7,30.14,NNW,337,6.0,21.0,67,0.00,,,0.00,Wunderground v.1.15,2013-03-29 22:23:00,
2013-03-29 18:29:00,41.9,31.4,30.15,North,11,6.0,21.0,66,0.00,,,0.00,Wunderground v.1.15,2013-03-29 22:29:00,
2013-03-29 18:35:00,41.6,31.4,30.15,NNW,336,8.0,21.0,67,0.00,,,0.00,Wunderground v.1.15,2013-03-29 22:35:00,
2013-03-29 18:40:00,41.6,31.4,30.15,NNW,342,7.0,21.0,67,0.00,,,0.00,Wunderground v.1.15,2013-03-29 22:40:00,
2013-03-29 18:47:00,41.4,31.6,30.14,NNW,335,7.0,21.0,68,0.00,,,0.00,Wunderground v.1.15,2013-03-29 22:47:00,
2013-03-29 18:53:00,41.1,31.3,30.15,North,349,6.0,21.0,68,0.00,,,0.00,Wunderground v.1.15,2013-03-29 22:53:00,
2013-03-29 18:59:00,41.0,31.6,30.15,NNW,331,6.0,21.0,69,0.00,,,0.00,Wunderground v.1.15,2013-03-29 22:59:00,
2013-03-29 19:04:00,40.9,31.5,30.15,North,5,6.0,21.0,69,0.00,,,0.00,Wunderground v.1.15,2013-03-29 23:04:00,
2013-03-29 19:09:00,40.8,31.4,30.15,NNW,332,5.0,21.0,69,0.00,,,0.00,Wunderground v.1.15,2013-03-29 23:09:00,
2013-03-29 19:15:00,40.7,31.7,30.15,WNW,292,5.0,21.0,70,0.00,,,0.00,Wunderground v.1.15,2013-03-29 23:15:00,
2013-03-29 19:20:00,40.6,31.6,30.15,NW,325,5.0,21.0,70,0.00,,,0.00,Wunderground v.1.15,2013-03-29 23:20:00,
2013-03-29 19:26:00,40.5,31.5,30.15,NW,311,6.0,21.0,70,0.00,,,0.00,Wunderground v.1.15,2013-03-29 23:26:00,
2013-03-29 19:33:00,40.3,31.6,30.16,NNE,15,5.0,21.0,71,0.00,,,0.00,Wunderground v.1.15,2013-03-29 23:33:00,
2013-03-29 19:38:00,40.1,31.4,30.15,WNW,294,5.0,21.0,71,0.00,,,0.00,Wunderground v.1.15,2013-03-29 23:38:00,
2013-03-29 19:44:00,40.0,31.7,30.16,WNW,300,4.0,21.0,72,0.00,,,0.00,Wunderground v.1.15,2013-03-29 23:44:00,
2013-03-29 19:50:00,39.9,31.6,30.16,NW,322,4.0,21.0,72,0.00,,,0.00,Wunderground v.1.15,2013-03-29 23:50:00,
2013-03-29 19:55:00,39.8,31.5,30.16,NNW,329,4.0,21.0,72,0.00,,,0.00,Wunderground v.1.15,2013-03-29 23:55:00,
2013-03-29 20:02:00,39.8,31.5,30.16,NNW,338,4.0,21.0,72,0.00,,,0.00,Wunderground v.1.15,2013-03-30 00:02:00,
2013-03-29 20:08:00,39.8,31.8,30.16,NNW,327,5.0,21.0,73,0.00,,,0.00,Wunderground v.1.15,2013-03-30 00:08:00,
2013-03-29 20:14:00,39.7,31.8,30.16,North,10,5.0,21.0,73,0.00,,,0.00,Wunderground v.1.15,2013-03-30 00:14:00,
2013-03-29 20:20:00,39.7,31.8,30.16,NNW,330,4.0,4.0,73,0.00,,,0.00,Wunderground v.1.15,2013-03-30 00:20:00,
2013-03-29 20:25:00,39.6,31.7,30.16,North,355,4.0,21.0,73,0.00,,,0.00,Wunderground v.1.15,2013-03-30 00:25:00,
2013-03-29 20:30:00,39.6,31.7,30.16,NW,323,2.0,21.0,73,0.00,,,0.00,Wunderground v.1.15,2013-03-30 00:30:00,
2013-03-29 20:35:00,39.5,31.9,30.16,NNW,347,2.0,21.0,74,0.00,,,0.00,Wunderground v.1.15,2013-03-30 00:35:00,
2013-03-29 20:42:00,39.5,31.9,30.17,WNW,285,3.0,21.0,74,0.00,,,0.00,Wunderground v.1.15,2013-03-30 00:42:00,
2013-03-29 20:47:00,39.4,31.8,30.17,NNW,331,3.0,21.0,74,0.00,,,0.00,Wunderground v.1.15,2013-03-30 00:47:00,
2013-03-29 20:52:00,39.3,31.7,30.17,NW,308,4.0,21.0,74,0.00,,,0.00,Wunderground v.1.15,2013-03-30 00:52:00,
2013-03-29 20:58:00,39.3,31.7,30.17,NW,310,5.0,21.0,74,0.00,,,0.00,Wunderground v.1.15,2013-03-30 00:58:00,
2013-03-29 21:03:00,39.2,31.9,30.17,North,5,5.0,21.0,75,0.00,,,0.00,Wunderground v.1.15,2013-03-30 01:03:00,
2013-03-29 21:08:00,39.2,31.9,30.17,NNW,343,5.0,21.0,75,0.00,,,0.00,Wunderground v.1.15,2013-03-30 01:08:00,
2013-03-29 21:14:00,39.1,31.8,30.18,NW,319,4.0,21.0,75,0.00,,,0.00,Wunderground v.1.15,2013-03-30 01:14:00,
2013-03-29 21:19:00,39.1,31.8,30.18,NNW,337,3.0,21.0,75,0.00,,,0.00,Wunderground v.1.15,2013-03-30 01:19:00,
2013-03-29 21:25:00,39.0,31.7,30.18,NW,311,4.0,21.0,75,0.00,,,0.00,Wunderground v.1.15,2013-03-30 01:25:00,
2013-03-29 21:30:00,38.9,31.6,30.17,NW,324,4.0,21.0,75,0.00,,,0.00,Wunderground v.1.15,2013-03-30 01:30:00,
2013-03-29 21:35:00,38.9,31.6,30.18,NNW,344,4.0,21.0,75,0.00,,,0.00,Wunderground v.1.15,2013-03-30 01:35:00,
2013-03-29 21:41:00,38.8,31.6,30.18,NW,311,4.0,7.0,75,0.00,,,0.00,Wunderground v.1.15,2013-03-30 01:41:00,
2013-03-29 21:47:00,38.8,31.6,30.18,NNW,331,4.0,21.0,75,0.00,,,0.00,Wunderground v.1.15,2013-03-30 01:47:00,
2013-03-29 21:53:00,38.8,31.6,30.18,NW,317,4.0,21.0,75,0.00,,,0.00,Wunderground v.1.15,2013-03-30 01:53:00,
2013-03-29 21:58:00,38.8,31.6,30.18,NW,315,4.0,21.0,75,0.00,,,0.00,Wunderground v.1.15,2013-03-30 01:58:00,
2013-03-29 22:04:00,38.8,31.6,30.18,NW,324,4.0,21.0,75,0.00,,,0.00,Wunderground v.1.15,2013-03-30 02:04:00,
2013-03-29 22:09:00,38.8,31.6,30.18,NNW,327,5.0,21.0,75,0.00,,,0.00,Wunderground v.1.15,2013-03-30 02:09:00,
2013-03-29 22:14:00,38.8,31.6,30.18,NW,320,5.0,21.0,75,0.00,,,0.00,Wunderground v.1.15,2013-03-30 02:14:00,
2013-03-29 22:19:00,38.7,31.5,30.18,North,350,4.0,21.0,75,0.00,,,0.00,Wunderground v.1.15,2013-03-30 02:19:00,
2013-03-29 22:24:00,38.7,31.5,30.18,NW,316,3.0,21.0,75,0.00,,,0.00,Wunderground v.1.15,2013-03-30 02:24:00,
2013-03-29 22:30:00,38.7,31.5,30.18,NW,320,2.0,2.0,75,0.00,,,0.00,Wunderground v.1.15,2013-03-30 02:30:00,
2013-03-29 22:36:00,38.7,31.5,30.18,NW,318,2.0,21.0,75,0.00,,,0.00,Wunderground v.1.15,2013-03-30 02:36:00,
2013-03-29 22:41:00,38.7,31.5,30.18,NW,318,2.0,4.0,75,0.00,,,0.00,Wunderground v.1.15,2013-03-30 02:41:00,
2013-03-29 22:47:00,38.6,31.4,30.18,NW,319,3.0,21.0,75,0.00,,,0.00,Wunderground v.1.15,2013-03-30 02:47:00,
2013-03-29 22:53:00,38.6,31.4,30.18,NNW,341,4.0,21.0,75,0.00,,,0.00,Wunderground v.1.15,2013-03-30 02:53:00,
2013-03-29 22:59:00,38.5,31.3,30.18,NNW,337,3.0,21.0,75,0.00,,,0.00,Wunderground v.1.15,2013-03-30 02:59:00,
2013-03-29 23:04:00,38.6,31.4,30.18,NNW,329,3.0,21.0,75,0.00,,,0.00,Wunderground v.1.15,2013-03-30 03:04:00,
2013-03-29 23:10:00,38.6,31.0,30.18,NNW,331,3.0,3.0,74,0.00,,,0.00,Wunderground v.1.15,2013-03-30 03:10:00,
2013-03-29 23:15:00,38.6,31.0,30.18,North,355,3.0,21.0,74,0.00,,,0.00,Wunderground v.1.15,2013-03-30 03:15:00,
2013-03-29 23:21:00,38.6,31.0,30.18,NW,306,2.0,21.0,74,0.00,,,0.00,Wunderground v.1.15,2013-03-30 03:21:00,
2013-03-29 23:26:00,38.6,31.0,30.18,NNW,343,2.0,21.0,74,0.00,,,0.00,Wunderground v.1.15,2013-03-30 03:26:00,
2013-03-29 23:31:00,38.6,31.0,30.18,NNW,333,2.0,21.0,74,0.00,,,0.00,Wunderground v.1.15,2013-03-30 03:31:00,
2013-03-29 23:37:00,38.6,31.0,30.18,North,351,2.0,21.0,74,0.00,,,0.00,Wunderground v.1.15,2013-03-30 03:37:00,
2013-03-29 23:43:00,38.5,30.9,30.18,NNW,327,1.0,21.0,74,0.00,,,0.00,Wunderground v.1.15,2013-03-30 03:43:00,
2013-03-29 23:48:00,38.5,30.9,30.18,NW,317,2.0,21.0,74,0.00,,,0.00,Wunderground v.1.15,2013-03-30 03:48:00,
2013-03-29 23:53:00,38.4,30.8,30.18,NW,317,2.0,21.0,74,0.00,,,0.00,Wunderground v.1.15,2013-03-30 03:53:00,
2013-03-29 23:59:00,38.3,30.7,30.18,NW,304,1.0,21.0,74,0.00,,,0.00,Wunderground v.1.15,2013-03-30 03:59:00,